User: anonymous   Login
Location: Caltech
(34.1382°N, 118.1253°W)
Time: 07:48:59
(UTC-08:00)
Language:

Spot 4 Rocket - Orbit

View from above orbital plane
View from above orbital plane
View from above satellite
View from above satellite

Ground track
Ground track

The orbit data is extracted from the following two-line orbital elements,

1 25261U 98017B   18050.96923140  .00000073  00000-0  42187-4 0  9995
2 25261  98.5781   0.5558 0004476  79.8098 280.3591 14.33646844 40512
Epoch (UTC): 19 February 2018 23:15:41
Eccentricity: 0.0004476
inclination: 98.5781°
perigee height: 776 km
apogee height: 783 km
right ascension of ascending node: 0.5558°
argument of perigee: 79.8098°
revolutions per day: 14.33646844
mean anomaly at epoch: 280.3591°
orbit number at epoch: 4051

The dashed part of the orbit path shows where the satellite is in the earth's shadow,  

DLR